• In Hungary
  • List of Countries
  • For 7 days
  • Water Temperature
  • Satellite Maps
  • Weather Map
  • News
  • Weather Widgets
  • user-avatar
    Login

    Hourly Weather Bangalore

    Today, 18 November, Saturday

    Time Temperature Precipitation Wind Pressure Humidity
    00:00 +21°C° 0 mm 2 mps 683 mmHg 86%
    01:00 +21°C° 0 mm 2 mps 682 mmHg 87%
    02:00 +20°C° 0 mm 2 mps 682 mmHg 89%
    03:00 +20°C° 0 mm 2 mps 682 mmHg 89%
    04:00 +21°C° 0 mm 1 mps 682 mmHg 90%
    05:00 +21°C° 0 mm 1 mps 682 mmHg 90%
    06:00 +22°C° 0 mm 1 mps 683 mmHg 86%
    07:00 +23°C° 0 mm 1 mps 683 mmHg 81%
    08:00 +24°C° 0 mm 2 mps 684 mmHg 76%
    09:00 +26°C° 0.1 mm 2 mps 684 mmHg 71%
    10:00 +27°C° 0.1 mm 2 mps 684 mmHg 66%
    11:00 +28°C° 0 mm 2 mps 684 mmHg 60%
    12:00 +29°C° 0.3 mm 2 mps 684 mmHg 59%
    13:00 +29°C° 0.3 mm 2 mps 683 mmHg 59%
    14:00 +29°C° 0.3 mm 3 mps 683 mmHg 58%
    15:00 +28°C° 0.7 mm 2 mps 682 mmHg 64%
    16:00 +27°C° 0.7 mm 2 mps 682 mmHg 69%
    17:00 +26°C° 0.7 mm 2 mps 682 mmHg 75%
    18:00 +25°C° 0.8 mm 2 mps 682 mmHg 78%
    19:00 +24°C° 0.8 mm 2 mps 683 mmHg 82%
    20:00 +23°C° 0.8 mm 2 mps 683 mmHg 85%
    21:00 +23°C° 0.4 mm 2 mps 684 mmHg 87%
    22:00 +23°C° 0.4 mm 2 mps 684 mmHg 88%
    23:00 +21°C° 0.4 mm 2 mps 684 mmHg 90%

    Tomorrow, 19 November, Sunday

    Time Temperature Precipitation Wind Pressure Humidity
    00:00 +21°C° 0.3 mm 2 mps 683 mmHg 91%
    01:00 +21°C° 0.3 mm 2 mps 683 mmHg 93%
    02:00 +21°C° 0.3 mm 2 mps 683 mmHg 94%
    03:00 +20°C° 0 mm 2 mps 683 mmHg 94%
    04:00 +20°C° 0 mm 2 mps 683 mmHg 95%
    05:00 +21°C° 0 mm 1 mps 683 mmHg 95%
    06:00 +22°C° 0 mm 1 mps 683 mmHg 91%
    07:00 +23°C° 0 mm 1 mps 684 mmHg 86%
    08:00 +24°C° 0 mm 1 mps 685 mmHg 82%
    09:00 +26°C° 0 mm 2 mps 685 mmHg 75%
    10:00 +27°C° 0 mm 2 mps 685 mmHg 68%
    11:00 +28°C° 0 mm 2 mps 685 mmHg 61%
    12:00 +29°C° 0.2 mm 3 mps 684 mmHg 60%
    13:00 +29°C° 0.2 mm 3 mps 684 mmHg 59%
    14:00 +29°C° 0.2 mm 3 mps 683 mmHg 58%
    15:00 +28°C° 0.3 mm 3 mps 683 mmHg 63%
    16:00 +27°C° 0.3 mm 3 mps 683 mmHg 68%
    17:00 +26°C° 0.3 mm 2 mps 683 mmHg 73%
    18:00 +25°C° 0.3 mm 2 mps 683 mmHg 78%
    19:00 +24°C° 0.3 mm 2 mps 684 mmHg 82%
    20:00 +23°C° 0.3 mm 2 mps 684 mmHg 86%
    21:00 +23°C° 0.1 mm 2 mps 684 mmHg 88%
    22:00 +23°C° 0.1 mm 2 mps 684 mmHg 91%
    23:00 +21°C° 0.1 mm 2 mps 684 mmHg 93%

    Day after tomorrow, 20 November, Monday

    Time Temperature Precipitation Wind Pressure Humidity
    00:00 +21°C° 0 mm 2 mps 684 mmHg 94%
    01:00 +21°C° 0 mm 2 mps 684 mmHg 94%
    02:00 +21°C° 0 mm 2 mps 683 mmHg 95%
    03:00 +21°C° 0 mm 2 mps 683 mmHg 95%
    04:00 +21°C° 0 mm 2 mps 683 mmHg 94%
    05:00 +21°C° 0 mm 2 mps 683 mmHg 94%
    06:00 +21°C° 0 mm 2 mps 684 mmHg 89%
    07:00 +23°C° 0 mm 2 mps 685 mmHg 85%
    08:00 +24°C° 0 mm 2 mps 685 mmHg 80%
    09:00 +26°C° 0 mm 2 mps 685 mmHg 73%
    10:00 +27°C° 0 mm 3 mps 685 mmHg 65%
    11:00 +28°C° 0 mm 3 mps 685 mmHg 58%
    12:00 +29°C° 0 mm 3 mps 685 mmHg 55%
    13:00 +29°C° 0 mm 3 mps 684 mmHg 53%
    14:00 +30°C° 0 mm 3 mps 683 mmHg 51%
    15:00 +29°C° 0 mm 3 mps 683 mmHg 56%
    16:00 +28°C° 0 mm 3 mps 683 mmHg 62%
    17:00 +27°C° 0 mm 2 mps 683 mmHg 67%
    18:00 +26°C° 0 mm 3 mps 683 mmHg 71%
    19:00 +25°C° 0 mm 3 mps 684 mmHg 76%
    20:00 +24°C° 0 mm 3 mps 684 mmHg 80%
    21:00 +22°C° 0 mm 3 mps 684 mmHg 84%
    22:00 +22°C° 0 mm 3 mps 684 mmHg 87%
    23:00 +21°C° 0 mm 2 mps 684 mmHg 90%

    21 November, Tuesday

    Time Temperature Precipitation Wind Pressure Humidity
    00:00 +21°C° 0 mm 2 mps 684 mmHg 91%
    01:00 +21°C° 0 mm 2 mps 683 mmHg 92%
    02:00 +21°C° 0 mm 2 mps 683 mmHg 93%
    03:00 +20°C° 0 mm 2 mps 683 mmHg 94%
    04:00 +20°C° 0 mm 2 mps 683 mmHg 94%
    05:00 +20°C° 0 mm 2 mps 683 mmHg 94%
    06:00 +21°C° 0 mm 2 mps 684 mmHg 90%
    07:00 +23°C° 0 mm 2 mps 684 mmHg 86%
    08:00 +24°C° 0 mm 3 mps 685 mmHg 82%
    09:00 +25°C° 0 mm 3 mps 685 mmHg 75%
    10:00 +27°C° 0 mm 3 mps 685 mmHg 67%
    11:00 +28°C° 0 mm 4 mps 685 mmHg 60%
    12:00 +29°C° 0 mm 4 mps 684 mmHg 59%
    13:00 +29°C° 0 mm 4 mps 683 mmHg 58%
    14:00 +29°C° 0 mm 4 mps 683 mmHg 57%
    15:00 +28°C° 0 mm 3 mps 682 mmHg 62%
    16:00 +27°C° 0 mm 3 mps 682 mmHg 67%
    17:00 +26°C° 0 mm 3 mps 682 mmHg 72%
    18:00 +25°C° 0 mm 3 mps 683 mmHg 76%
    19:00 +24°C° 0 mm 3 mps 683 mmHg 81%
    20:00 +22°C° 0 mm 3 mps 684 mmHg 85%
    21:00 +22°C° 0 mm 3 mps 684 mmHg 88%
    22:00 +22°C° 0 mm 3 mps 684 mmHg 91%
    23:00 +21°C° 0 mm 3 mps 684 mmHg 93%

    22 November, Wednesday

    Time Temperature Precipitation Wind Pressure Humidity
    00:00 +21°C° 0.1 mm 3 mps 683 mmHg 94%
    01:00 +21°C° 0.1 mm 2 mps 683 mmHg 94%
    02:00 +21°C° 0.1 mm 2 mps 682 mmHg 94%
    03:00 +20°C° 0 mm 2 mps 682 mmHg 95%
    04:00 +20°C° 0 mm 2 mps 682 mmHg 95%
    05:00 +20°C° 0 mm 2 mps 683 mmHg 95%
    06:00 +21°C° 0 mm 2 mps 683 mmHg 89%
    07:00 +23°C° 0 mm 2 mps 684 mmHg 84%
    08:00 +24°C° 0 mm 3 mps 685 mmHg 79%
    09:00 +25°C° 0 mm 3 mps 685 mmHg 72%
    10:00 +27°C° 0 mm 3 mps 685 mmHg 65%
    11:00 +28°C° 0 mm 3 mps 685 mmHg 58%
    12:00 +29°C° 0.3 mm 4 mps 684 mmHg 56%
    13:00 +29°C° 0.3 mm 4 mps 683 mmHg 54%
    14:00 +30°C° 0.3 mm 4 mps 682 mmHg 52%
    15:00 +28°C° 0.1 mm 4 mps 683 mmHg 58%
    16:00 +27°C° 0.1 mm 3 mps 683 mmHg 64%
    17:00 +26°C° 0.1 mm 3 mps 683 mmHg 69%
    18:00 +25°C° 0.2 mm 3 mps 683 mmHg 75%
    19:00 +24°C° 0.2 mm 3 mps 684 mmHg 81%
    20:00 +22°C° 0.2 mm 4 mps 684 mmHg 86%
    21:00 +21°C° 0 mm 3 mps 684 mmHg 89%
    22:00 +21°C° 0 mm 3 mps 684 mmHg 91%
    23:00 +21°C° 0 mm 3 mps 684 mmHg 93%

    23 November, Thursday

    Time Temperature Precipitation Wind Pressure Humidity
    00:00 +20°C° 0 mm 3 mps 683 mmHg 94%
    01:00 +20°C° 0 mm 2 mps 683 mmHg 94%
    02:00 +20°C° 0 mm 2 mps 683 mmHg 94%
    03:00 +19°C° 0 mm 2 mps 683 mmHg 93%
    04:00 +19°C° 0 mm 2 mps 683 mmHg 93%
    05:00 +19°C° 0 mm 2 mps 683 mmHg 92%
    06:00 +20°C° 0 mm 2 mps 684 mmHg 85%
    07:00 +21°C° 0 mm 3 mps 684 mmHg 79%
    08:00 +22°C° 0 mm 4 mps 685 mmHg 72%
    09:00 +25°C° 0 mm 4 mps 685 mmHg 67%
    10:00 +26°C° 0 mm 4 mps 685 mmHg 62%
    11:00 +28°C° 0 mm 5 mps 685 mmHg 56%
    12:00 +28°C° 0 mm 4 mps 684 mmHg 56%
    13:00 +28°C° 0 mm 4 mps 684 mmHg 56%
    14:00 +29°C° 0 mm 4 mps 683 mmHg 56%
    15:00 +28°C° 0.1 mm 4 mps 683 mmHg 61%
    16:00 +27°C° 0.1 mm 3 mps 683 mmHg 67%
    17:00 +26°C° 0.1 mm 3 mps 683 mmHg 72%
    18:00 +25°C° 0.1 mm 3 mps 684 mmHg 76%
    19:00 +24°C° 0.1 mm 2 mps 684 mmHg 80%
    20:00 +23°C° 0.1 mm 2 mps 685 mmHg 85%
    21:00 +21°C° 0.2 mm 2 mps 684 mmHg 87%
    22:00 +21°C° 0.2 mm 2 mps 684 mmHg 89%
    23:00 +21°C° 0.2 mm 2 mps 684 mmHg 91%
    Show more